Flag for Romania Weather past 2 weeks in Brașov, Romania

32 °F

Light snow. Mostly cloudy.

Feels Like: 32 °F
Forecast: 27 / 38 °F
Wind: 2 mph from North

Location: Sibiu Airport

Current Time: Nov 25, 2015 at 1:15:58 AM

Latest Report: Nov 25, 2015 at 12:00 AM

Visibility: 1 mi

Pressure: 30.09 "Hg (27.94 "Hg at 592m altitude)

Humidity: 100%

Dew point: 32 °F

Location of BrașovLocation

Historic Weather in Brașov — Graph


Brașov temperature yesterday

Maximum temperature yesterday: 34 °F (at 2:00 AM)
Minimum temperature yesterday: 32 °F (at 12:00 AM)
Average temperature yesterday: 33 °F

Past Weeks' High & Low Weather Summary

High64 °F (Nov 12, 1:00 PM)100% (Nov 10, 1:00 AM)30.42 "Hg (Nov 10, 1:00 AM)
Low27 °F (Nov 15, 8:00 AM)37% (Nov 14, 6:00 PM)29.18 "Hg (Nov 22, 12:00 AM)
Average47 °F79%30.02 "Hg
* Reported Nov 9 11:00 PM — Nov 24 11:00 PM, Brașov, Weather by CustomWeather, © 2015

Note: Actual official high and low records may vary slightly from our data, if they occured in-between our weather recording intervals... More about our weather records


Brașov weather history for previous 24 hours

Time TempWeatherWind HumidityBarometerVisibility
11:00 PM
Tue, Nov 24
32 °FLight snow. Ice fog.1 mph100%30.12 "Hg1 mi
10:00 PM32 °FLight snow. Ice fog.No wind100%30.15 "Hg1 mi
9:00 PM34 °FFog.1 mph93%30.15 "Hg1 mi
8:30 PM32 °FIce fog.2 mph100%30.15 "Hg1 mi
8:00 PM32 °FIce fog.No wind100%30.15 "Hg2 mi
7:30 PM32 °FLight snow. Ice fog.No wind100%30.18 "Hg2 mi
7:00 PM32 °FLight snow. Ice fog.No wind100%30.18 "Hg2 mi
6:30 PM32 °FLight snow. Ice fog.2 mph100%30.18 "Hg2 mi
6:00 PM32 °FLight snow. Ice fog.3 mph100%30.18 "Hg1 mi
5:30 PM32 °FLight snow. Ice fog.3 mph100%30.18 "Hg1 mi
5:00 PM32 °FSleet. Overcast.3 mph100%30.18 "Hg1 mi
4:30 PM32 °FSnow. Mostly cloudy.1 mph100%30.18 "Hg1 mi
4:00 PM32 °FLight rain. Ice fog.5 mph100%30.18 "Hg1 mi
3:30 PM34 °FLight rain. Fog.3 mph93%30.18 "Hg1 mi
3:00 PM34 °FLight rain. Fog.2 mph100%30.18 "Hg1 mi
2:30 PM34 °FLight rain. Fog.3 mph93%30.18 "Hg1 mi
2:00 PM34 °FLight rain. Fog.2 mph100%30.18 "Hg1 mi
1:30 PM34 °FLight rain. Fog.2 mph100%30.18 "Hg2 mi
1:00 PM34 °FSnow flurries. More clouds than sun.3 mph100%30.21 "Hg1 mi
12:30 PM34 °FLight rain. Fog.5 mph100%30.21 "Hg2 mi
12:00 PM34 °FFog.2 mph100%30.21 "Hg2 mi
11:30 AM34 °FFog.2 mph100%30.24 "Hg2 mi
11:00 AM34 °FLight rain. Mostly cloudy.2 mph100%30.24 "Hg1 mi
10:30 AM34 °FMore clouds than sun.2 mph93%30.24 "Hg1 mi
10:00 AM34 °FLight rain. Fog.No wind100%30.24 "Hg1 mi
9:30 AM32 °FLight rain. Ice fog.No wind100%30.24 "Hg1 mi
9:00 AM32 °FSnow. More clouds than sun.No wind100%30.24 "Hg1 mi
8:30 AM32 °FSnow. More clouds than sun.No wind100%30.27 "Hg1 mi
8:00 AM32 °FSnow. Ice fog.No wind100%30.27 "Hg1 mi
7:30 AM32 °FSnow. Ice fog.2 mph100%30.27 "Hg1 mi
7:00 AM32 °FLight snow. Ice fog.1 mph100%30.24 "Hg1 mi
6:30 AM32 °FLight snow. Ice fog.1 mph100%30.27 "Hg1 mi
6:00 AM32 °FLight snow. Ice fog.1 mph100%30.24 "Hg1 mi
5:30 AM34 °FLight rain. Fog.3 mph93%30.24 "Hg1 mi
5:00 AM34 °FLight rain. Fog.3 mph100%30.24 "Hg2 mi
4:00 AM34 °FLight rain. Fog.3 mph100%30.24 "Hg3 mi
3:00 AM34 °FFog.2 mph100%30.24 "Hg3 mi
2:00 AM34 °FFog.5 mph93%30.24 "Hg3 mi
Weather by CustomWeather, © 2015

See weather overviewHow to use our weather pages